Voltar ao catálogo

DELTA 1 DEB

AtivoSSO
NORAD 12294·DEBRIS·🇺🇸 United States

Lançado Mar 5, 1978 de Vandenberg Space Force Base

Loading…

Próximas Passagens (próximas 24 horas)

TLE

AtualizadoSource: Space-Track

Época: Sep 14, 2026, 04:15 UTC

1 12294U 78026EN  26257.17753641  .00000646  00000-0  18955-3 0  9994
2 12294  98.5842 242.5658 0090233 358.2903   1.7967 14.45036339386785

Acompanhe DELTA 1 DEB em tempo real com AllMySat

Download on the App Store